Location: Unspecified
(0.0000°N, 0.0000°E)
Time: 14:53:15
(UTC+00:00)

BREEZE-M DEB (TANK) - Visible Passes

Search period start: 23 February 2024 00:00
Search period end: 04 March 2024 00:00
Orbit: 333 x 11687 km, 49.7° (Epoch: 22 February)

Date Brightness Start Highest point End Pass type
(mag) Time Alt. Az. Time Alt. Az. Time Alt. Az.
23 Feb 6.3 03:49:15 10° NW 04:21:24 78° NE 04:28:32 10° SE visible
23 Feb 9.6 20:42:53 10° WNW 21:35:17 23° NNW 22:52:32 10° NE visible
24 Feb 7.5 02:27:09 10° NNW 03:08:13 47° NE 03:17:54 10° ESE visible
24 Feb 9.9 19:19:44 10° W 19:55:51 33° NW 21:27:08 10° NNE visible
25 Feb 8.4 01:01:20 10° NNW 01:51:48 32° NNE 02:05:35 10° E visible
25 Feb 6.7 05:43:46 10° WNW 05:57:11 24° WSW 06:02:38 10° SSW visible
25 Feb 9.8 18:04:01 10° WSW 18:30:56 47° NW 20:02:57 10° NNE visible
25 Feb 8.8 23:24:28 10° NNW 00:30:04 23° NNE 00:50:24 10° ENE visible
26 Feb 6.0 04:21:24 10° NW 04:48:09 63° WSW 04:54:38 10° SSE visible
26 Feb 9.2 16:51:28 10° SW 17:11:37 66° NW 18:38:59 10° NNE visible
26 Feb 9.3 21:30:18 10° NW 22:51:58 20° N 23:30:12 10° NE visible
27 Feb 6.6 02:59:17 10° NNW 03:36:54 71° NE 03:44:58 10° SE visible
27 Feb 9.7 19:54:28 10° WNW 20:40:07 24° NNW 22:04:20 10° NNE visible
28 Feb 7.7 01:35:38 10° NNW 02:22:50 45° NE 02:33:58 10° ESE visible
28 Feb 10.0 18:33:57 10° W 19:06:04 35° NW 20:37:30 10° NNE visible
29 Feb 8.5 00:07:20 10° NNW 01:05:11 31° NNE 01:21:04 10° E visible
29 Feb 6.6 04:54:38 10° NW 05:13:24 32° WSW 05:19:37 10° S visible
29 Feb 9.7 17:19:12 10° WSW 17:42:54 50° NW 19:12:11 10° NNE visible
29 Feb 8.9 22:26:16 10° NW 23:40:58 23° NNE 00:04:52 10° ENE visible
01 Mar 6.2 03:31:28 10° NW 04:03:49 74° WSW 04:11:00 10° SSE visible
01 Mar 9.4 20:36:38 10° WNW 21:51:57 20° N 22:42:51 10° NE visible
02 Mar 6.9 02:08:10 10° NNW 02:51:47 65° NE 03:00:59 10° SE visible
02 Mar 9.7 19:06:42 10° W 19:46:41 26° NNW 21:14:49 10° NNE visible
03 Mar 7.7 00:42:53 10° NNW 01:42:35 36° ENE 01:49:32 10° ESE visible
03 Mar 7.0 05:31:39 11° W 05:37:53 14° WSW 05:42:13 10° SW visible
03 Mar 10.1 17:48:10 10° W 18:16:33 38° NW 19:46:36 10° NNE visible
